Year,Month,Day,Hour,Minute,Value (Times are PST for temperature in C)
2006,06,25,00,00,15.30
2006,06,25,00,01,15.30
2006,06,25,00,02,15.30
2006,06,25,00,03,15.20
2006,06,25,00,04,15.20
2006,06,25,00,05,15.20
2006,06,25,00,06,15.20
2006,06,25,00,07,15.20
2006,06,25,00,08,15.20
2006,06,25,00,09,15.20
2006,06,25,00,10,15.20
2006,06,25,00,11,15.20
2006,06,25,00,12,15.20
2006,06,25,00,13,15.20
2006,06,25,00,14,15.20
2006,06,25,00,15,15.20
2006,06,25,00,16,15.20
2006,06,25,00,17,15.10
2006,06,25,00,18,15.10
2006,06,25,00,19,15.10
2006,06,25,00,20,15.10
2006,06,25,00,21,15.10
2006,06,25,00,22,15.10
2006,06,25,00,23,15.10
2006,06,25,00,24,15.10
2006,06,25,00,25,15.10
2006,06,25,00,26,15.10
2006,06,25,00,27,15.10
2006,06,25,00,28,15.10
2006,06,25,00,29,15.10
2006,06,25,00,30,15.10
2006,06,25,00,31,15.00
2006,06,25,00,32,15.00
2006,06,25,00,33,15.00
2006,06,25,00,34,15.00
2006,06,25,00,35,14.90
2006,06,25,00,36,14.90
2006,06,25,00,37,14.90
2006,06,25,00,38,14.80
2006,06,25,00,39,14.80
2006,06,25,00,40,14.80
2006,06,25,00,41,14.80
2006,06,25,00,42,14.80
2006,06,25,00,43,14.80
2006,06,25,00,44,14.70
2006,06,25,00,45,14.70
2006,06,25,00,46,14.70
2006,06,25,00,47,14.70
2006,06,25,00,48,14.60
2006,06,25,00,49,14.60
2006,06,25,00,50,14.60
2006,06,25,00,51,14.50
2006,06,25,00,52,14.50
2006,06,25,00,53,14.50
2006,06,25,00,54,14.50
2006,06,25,00,55,14.40
2006,06,25,00,56,14.40
2006,06,25,00,57,14.40
2006,06,25,00,58,14.40
2006,06,25,00,59,14.30
2006,06,25,01,00,14.30
2006,06,25,01,01,14.30
2006,06,25,01,02,14.30
2006,06,25,01,03,14.30
2006,06,25,01,04,14.20
2006,06,25,01,05,14.20
2006,06,25,01,06,14.20
2006,06,25,01,07,14.20
2006,06,25,01,08,14.20
2006,06,25,01,09,14.20
2006,06,25,01,10,14.20
2006,06,25,01,11,14.20
2006,06,25,01,12,14.20
2006,06,25,01,13,14.20
2006,06,25,01,14,14.20
2006,06,25,01,15,14.10
2006,06,25,01,16,14.10
2006,06,25,01,17,14.10
2006,06,25,01,18,14.10
2006,06,25,01,19,14.10
2006,06,25,01,20,14.10
2006,06,25,01,21,14.00
2006,06,25,01,22,14.00
2006,06,25,01,23,14.00
2006,06,25,01,24,14.00
2006,06,25,01,25,14.00
2006,06,25,01,26,14.00
2006,06,25,01,27,14.00
2006,06,25,01,28,14.00
2006,06,25,01,29,13.90
2006,06,25,01,30,13.90
2006,06,25,01,31,13.90
2006,06,25,01,32,13.90
2006,06,25,01,33,13.90
2006,06,25,01,34,13.90
2006,06,25,01,35,13.90
2006,06,25,01,36,13.80
2006,06,25,01,37,13.80
2006,06,25,01,38,13.80
2006,06,25,01,39,13.80
2006,06,25,01,40,13.80
2006,06,25,01,41,13.80
2006,06,25,01,42,13.70
2006,06,25,01,43,13.70
2006,06,25,01,44,13.70
2006,06,25,01,45,13.80
2006,06,25,01,46,13.80
2006,06,25,01,47,13.80
2006,06,25,01,48,13.80
2006,06,25,01,49,13.90
2006,06,25,01,50,13.90
2006,06,25,01,51,13.80
2006,06,25,01,52,13.80
2006,06,25,01,53,13.80
2006,06,25,01,54,13.80
2006,06,25,01,55,13.80
2006,06,25,01,56,13.70
2006,06,25,01,57,13.70
2006,06,25,01,58,13.70
2006,06,25,01,59,13.70
2006,06,25,02,00,13.70
2006,06,25,02,01,13.70
2006,06,25,02,02,13.70
2006,06,25,02,03,13.70
2006,06,25,02,04,13.70
2006,06,25,02,05,13.70
2006,06,25,02,06,13.70
2006,06,25,02,07,13.70
2006,06,25,02,08,13.70
2006,06,25,02,09,13.70
2006,06,25,02,10,13.70
2006,06,25,02,11,13.70
2006,06,25,02,12,13.70
2006,06,25,02,13,13.70
2006,06,25,02,14,13.70
2006,06,25,02,15,13.60
2006,06,25,02,16,13.60
2006,06,25,02,17,13.60
2006,06,25,02,18,13.60
2006,06,25,02,19,13.60
2006,06,25,02,20,13.60
2006,06,25,02,21,13.60
2006,06,25,02,22,13.50
2006,06,25,02,23,13.50
2006,06,25,02,24,13.50
2006,06,25,02,25,13.50
2006,06,25,02,26,13.50
2006,06,25,02,27,13.40
2006,06,25,02,28,13.40
2006,06,25,02,29,13.40
2006,06,25,02,30,13.40
2006,06,25,02,31,13.40
2006,06,25,02,32,13.30
2006,06,25,02,33,13.30
2006,06,25,02,34,13.30
2006,06,25,02,35,13.30
2006,06,25,02,36,13.30
2006,06,25,02,37,13.30
2006,06,25,02,38,13.20
2006,06,25,02,39,13.20
2006,06,25,02,40,13.20
2006,06,25,02,41,13.10
2006,06,25,02,42,13.10
2006,06,25,02,43,13.10
2006,06,25,02,44,13.10
2006,06,25,02,45,13.10
2006,06,25,02,46,13.10
2006,06,25,02,47,13.10
2006,06,25,02,48,13.10
2006,06,25,02,49,13.10
2006,06,25,02,50,13.10
2006,06,25,02,51,13.10
2006,06,25,02,52,13.10
2006,06,25,02,53,13.10
2006,06,25,02,54,13.10
2006,06,25,02,55,13.10
2006,06,25,02,56,13.10
2006,06,25,02,57,13.10
2006,06,25,02,58,13.10
2006,06,25,02,59,13.10
2006,06,25,03,00,13.00
2006,06,25,03,01,13.00
2006,06,25,03,02,13.00
2006,06,25,03,03,13.00
2006,06,25,03,04,13.00
2006,06,25,03,05,13.00
2006,06,25,03,06,13.00
2006,06,25,03,07,13.00
2006,06,25,03,08,12.90
2006,06,25,03,09,12.90
2006,06,25,03,10,12.90
2006,06,25,03,11,12.90
2006,06,25,03,12,12.90
2006,06,25,03,13,12.90
2006,06,25,03,14,12.90
2006,06,25,03,15,12.90
2006,06,25,03,16,12.90
2006,06,25,03,17,12.90
2006,06,25,03,18,12.90
2006,06,25,03,19,12.90
2006,06,25,03,20,12.90
2006,06,25,03,21,12.90
2006,06,25,03,22,12.90
2006,06,25,03,23,13.00
2006,06,25,03,24,13.00
2006,06,25,03,25,13.00
2006,06,25,03,26,13.00
2006,06,25,03,27,13.00
2006,06,25,03,28,12.90
2006,06,25,03,29,12.90
2006,06,25,03,30,12.90
2006,06,25,03,31,12.90
2006,06,25,03,32,12.90
2006,06,25,03,33,12.80
2006,06,25,03,34,12.80
2006,06,25,03,35,12.80
2006,06,25,03,36,12.80
2006,06,25,03,37,12.80
2006,06,25,03,38,12.80
2006,06,25,03,39,12.80
2006,06,25,03,40,12.80
2006,06,25,03,41,12.80
2006,06,25,03,42,12.80
2006,06,25,03,43,12.80
2006,06,25,03,44,12.80
2006,06,25,03,45,12.80
2006,06,25,03,46,12.80
2006,06,25,03,47,12.80
2006,06,25,03,48,12.80
2006,06,25,03,49,12.80
2006,06,25,03,50,12.80
2006,06,25,03,51,12.80
2006,06,25,03,52,12.80
2006,06,25,03,53,12.80
2006,06,25,03,54,12.80
2006,06,25,03,55,12.80
2006,06,25,03,56,12.80
2006,06,25,03,57,12.80
2006,06,25,03,58,12.80
2006,06,25,03,59,12.70
2006,06,25,04,00,12.70
2006,06,25,04,01,12.70
2006,06,25,04,02,12.70
2006,06,25,04,03,12.70
2006,06,25,04,04,12.70
2006,06,25,04,05,12.60
2006,06,25,04,06,12.60
2006,06,25,04,07,12.60
2006,06,25,04,08,12.60
2006,06,25,04,09,12.60
2006,06,25,04,10,12.50
2006,06,25,04,11,12.50
2006,06,25,04,12,12.50
2006,06,25,04,13,12.50
2006,06,25,04,14,12.40
2006,06,25,04,15,12.40
2006,06,25,04,16,12.40
2006,06,25,04,17,12.40
2006,06,25,04,18,12.40
2006,06,25,04,19,12.40
2006,06,25,04,20,12.40
2006,06,25,04,21,12.40
2006,06,25,04,22,12.40
2006,06,25,04,23,12.40
2006,06,25,04,24,12.40
2006,06,25,04,25,12.40
2006,06,25,04,26,12.40
2006,06,25,04,27,12.40
2006,06,25,04,28,12.50
2006,06,25,04,29,12.50
2006,06,25,04,30,12.50
2006,06,25,04,31,12.50
2006,06,25,04,32,12.50
2006,06,25,04,33,12.40
2006,06,25,04,34,12.40
2006,06,25,04,35,12.40
2006,06,25,04,36,12.40
2006,06,25,04,37,12.40
2006,06,25,04,38,12.40
2006,06,25,04,39,12.40
2006,06,25,04,40,12.40
2006,06,25,04,41,12.30
2006,06,25,04,42,12.30
2006,06,25,04,43,12.30
2006,06,25,04,44,12.30
2006,06,25,04,45,12.30
2006,06,25,04,46,12.30
2006,06,25,04,47,12.30
2006,06,25,04,48,12.20
2006,06,25,04,49,12.20
2006,06,25,04,50,12.20
2006,06,25,04,51,12.20
2006,06,25,04,52,12.20
2006,06,25,04,53,12.10
2006,06,25,04,54,12.10
2006,06,25,04,55,12.10
2006,06,25,04,56,12.10
2006,06,25,04,57,12.10
2006,06,25,04,58,12.10
2006,06,25,04,59,12.00
2006,06,25,05,00,12.00
2006,06,25,05,01,12.00
2006,06,25,05,02,11.90
2006,06,25,05,03,11.90
2006,06,25,05,04,11.90
2006,06,25,05,05,11.90
2006,06,25,05,06,11.90
2006,06,25,05,07,11.90
2006,06,25,05,08,11.80
2006,06,25,05,09,11.80
2006,06,25,05,10,11.80
2006,06,25,05,11,11.80
2006,06,25,05,12,11.80
2006,06,25,05,13,11.80
2006,06,25,05,14,11.80
2006,06,25,05,15,11.80
2006,06,25,05,16,11.70
2006,06,25,05,17,11.70
2006,06,25,05,18,11.70
2006,06,25,05,19,11.60
2006,06,25,05,20,11.60
2006,06,25,05,21,11.60
2006,06,25,05,22,11.60
2006,06,25,05,23,11.60
2006,06,25,05,24,11.60
2006,06,25,05,25,11.60
2006,06,25,05,26,11.60
2006,06,25,05,27,11.50
2006,06,25,05,28,11.40
2006,06,25,05,29,11.40
2006,06,25,05,30,11.40
2006,06,25,05,31,11.40
2006,06,25,05,32,11.40
2006,06,25,05,33,11.40
2006,06,25,05,34,11.40
2006,06,25,05,35,11.40
2006,06,25,05,36,11.40
2006,06,25,05,37,11.40
2006,06,25,05,38,11.40
2006,06,25,05,39,11.40
2006,06,25,05,40,11.40
2006,06,25,05,41,11.40
2006,06,25,05,42,11.40
2006,06,25,05,43,11.40
2006,06,25,05,44,11.40
2006,06,25,05,45,11.40
2006,06,25,05,46,11.50
2006,06,25,05,47,11.60
2006,06,25,05,48,11.60
2006,06,25,05,49,11.60
2006,06,25,05,50,11.60
2006,06,25,05,51,11.60
2006,06,25,05,52,11.60
2006,06,25,05,53,11.60
2006,06,25,05,54,11.60
2006,06,25,05,55,11.70
2006,06,25,05,56,11.70
2006,06,25,05,57,11.70
2006,06,25,05,58,11.70
2006,06,25,05,59,11.70
2006,06,25,06,00,11.70
2006,06,25,06,01,11.70
2006,06,25,06,02,11.70
2006,06,25,06,03,11.70
2006,06,25,06,04,11.80
2006,06,25,06,05,11.80
2006,06,25,06,06,11.80
2006,06,25,06,07,11.80
2006,06,25,06,08,11.80
2006,06,25,06,09,11.80
2006,06,25,06,10,11.80
2006,06,25,06,11,11.80
2006,06,25,06,12,11.80
2006,06,25,06,13,11.80
2006,06,25,06,14,11.80
2006,06,25,06,15,11.80
2006,06,25,06,16,11.80
2006,06,25,06,17,11.80
2006,06,25,06,18,11.80
2006,06,25,06,19,11.80
2006,06,25,06,20,11.80
2006,06,25,06,21,11.80
2006,06,25,06,22,11.80
2006,06,25,06,23,11.80
2006,06,25,06,24,11.80
2006,06,25,06,25,11.80
2006,06,25,06,26,11.80
2006,06,25,06,27,11.80
2006,06,25,06,28,11.80
2006,06,25,06,29,11.80
2006,06,25,06,30,11.90
2006,06,25,06,31,11.90
2006,06,25,06,32,12.00
2006,06,25,06,33,12.00
2006,06,25,06,34,12.10
2006,06,25,06,35,12.10
2006,06,25,06,36,12.20
2006,06,25,06,37,12.30
2006,06,25,06,38,12.30
2006,06,25,06,39,12.40
2006,06,25,06,40,12.50
2006,06,25,06,41,12.50
2006,06,25,06,42,12.60
2006,06,25,06,43,12.70
2006,06,25,06,44,12.80
2006,06,25,06,45,12.90
2006,06,25,06,46,13.00
2006,06,25,06,47,13.10
2006,06,25,06,48,13.20
2006,06,25,06,49,13.20
2006,06,25,06,50,13.40
2006,06,25,06,51,13.50
2006,06,25,06,52,13.60
2006,06,25,06,53,13.70
2006,06,25,06,54,13.80
2006,06,25,06,55,13.90
2006,06,25,06,56,14.10
2006,06,25,06,57,14.20
2006,06,25,06,58,14.20
2006,06,25,06,59,14.40
2006,06,25,07,00,14.40
2006,06,25,07,01,14.50
2006,06,25,07,02,14.60
2006,06,25,07,03,14.70
2006,06,25,07,04,14.80
2006,06,25,07,05,14.80
2006,06,25,07,06,15.00
2006,06,25,07,07,15.10
2006,06,25,07,08,15.20
2006,06,25,07,09,15.30
2006,06,25,07,10,15.30
2006,06,25,07,11,15.50
2006,06,25,07,12,15.60
2006,06,25,07,13,15.70
2006,06,25,07,14,15.80
2006,06,25,07,15,15.90
2006,06,25,07,16,16.00
2006,06,25,07,17,16.20
2006,06,25,07,18,16.20
2006,06,25,07,19,16.30
2006,06,25,07,20,16.70
2006,06,25,07,21,16.90
2006,06,25,07,22,17.00
2006,06,25,07,23,17.20
2006,06,25,07,24,17.30
2006,06,25,07,25,17.50
2006,06,25,07,26,17.60
2006,06,25,07,27,17.70
2006,06,25,07,28,17.80
2006,06,25,07,29,17.90
2006,06,25,07,30,17.90
2006,06,25,07,31,18.10
2006,06,25,07,32,18.20
2006,06,25,07,33,18.30
2006,06,25,07,34,18.50
2006,06,25,07,35,18.60
2006,06,25,07,36,18.60
2006,06,25,07,37,18.70
2006,06,25,07,38,18.80
2006,06,25,07,39,18.90
2006,06,25,07,40,19.00
2006,06,25,07,41,19.10
2006,06,25,07,42,19.10
2006,06,25,07,43,19.20
2006,06,25,07,44,19.30
2006,06,25,07,45,19.40
2006,06,25,07,46,19.50
2006,06,25,07,47,19.60
2006,06,25,07,48,19.60
2006,06,25,07,49,19.70
2006,06,25,07,50,19.70
2006,06,25,07,51,19.80
2006,06,25,07,52,19.90
2006,06,25,07,53,19.90
2006,06,25,07,54,20.00
2006,06,25,07,55,20.10
2006,06,25,07,56,20.20
2006,06,25,07,57,20.20
2006,06,25,07,58,20.20
2006,06,25,07,59,20.30
2006,06,25,08,00,20.40
2006,06,25,08,01,20.50
2006,06,25,08,02,20.60
2006,06,25,08,03,20.60
2006,06,25,08,04,20.70
2006,06,25,08,05,20.70
2006,06,25,08,06,20.80
2006,06,25,08,07,20.90
2006,06,25,08,08,21.00
2006,06,25,08,09,21.10
2006,06,25,08,10,21.20
2006,06,25,08,11,21.30
2006,06,25,08,12,21.30
2006,06,25,08,13,21.30
2006,06,25,08,14,21.30
2006,06,25,08,15,21.30
2006,06,25,08,16,21.30
2006,06,25,08,17,21.40
2006,06,25,08,18,21.50
2006,06,25,08,19,21.60
2006,06,25,08,20,21.60
2006,06,25,08,21,21.60
2006,06,25,08,22,21.80
2006,06,25,08,23,22.00
2006,06,25,08,24,22.10
2006,06,25,08,25,22.20
2006,06,25,08,26,22.30
2006,06,25,08,27,22.50
2006,06,25,08,28,22.50
2006,06,25,08,29,22.60
2006,06,25,08,30,22.60
2006,06,25,08,31,22.70
2006,06,25,08,32,22.80
2006,06,25,08,33,22.80
2006,06,25,08,34,22.90
2006,06,25,08,35,22.90
2006,06,25,08,36,22.90
2006,06,25,08,37,23.00
2006,06,25,08,38,23.10
2006,06,25,08,39,23.10
2006,06,25,08,40,23.20
2006,06,25,08,41,23.20
2006,06,25,08,42,23.30
2006,06,25,08,43,23.30
2006,06,25,08,44,23.40
2006,06,25,08,45,23.50
2006,06,25,08,46,23.60
2006,06,25,08,47,23.70
2006,06,25,08,48,23.70
2006,06,25,08,49,23.70
2006,06,25,08,50,23.70
2006,06,25,08,51,23.80
2006,06,25,08,52,23.90
2006,06,25,08,53,23.90
2006,06,25,08,54,23.90
2006,06,25,08,55,23.90
2006,06,25,08,56,23.80
2006,06,25,08,57,23.70
2006,06,25,08,58,23.70
2006,06,25,08,59,23.70
2006,06,25,09,00,23.70
2006,06,25,09,01,23.80
2006,06,25,09,02,23.80
2006,06,25,09,03,23.90
2006,06,25,09,04,24.00
2006,06,25,09,05,24.10
2006,06,25,09,06,24.20
2006,06,25,09,07,24.30
2006,06,25,09,08,24.40
2006,06,25,09,09,24.50
2006,06,25,09,10,24.60
2006,06,25,09,11,24.60
2006,06,25,09,12,24.60
2006,06,25,09,13,24.70
2006,06,25,09,14,24.70
2006,06,25,09,15,24.80
2006,06,25,09,16,24.80
2006,06,25,09,17,24.80
2006,06,25,09,18,24.90
2006,06,25,09,19,24.90
2006,06,25,09,20,24.90
2006,06,25,09,21,25.00
2006,06,25,09,22,25.00
2006,06,25,09,23,25.10
2006,06,25,09,24,25.20
2006,06,25,09,25,25.30
2006,06,25,09,26,25.20
2006,06,25,09,27,25.00
2006,06,25,09,28,24.90
2006,06,25,09,29,24.80
2006,06,25,09,30,24.70
2006,06,25,09,31,24.60
2006,06,25,09,32,24.60
2006,06,25,09,33,24.70
2006,06,25,09,34,24.70
2006,06,25,09,35,24.80
2006,06,25,09,36,24.80
2006,06,25,09,37,24.70
2006,06,25,09,38,24.70
2006,06,25,09,39,24.70
2006,06,25,09,40,24.70
2006,06,25,09,41,24.70
2006,06,25,09,42,24.70
2006,06,25,09,43,24.70
2006,06,25,09,44,24.70
2006,06,25,09,45,24.60
2006,06,25,09,46,24.60
2006,06,25,09,47,24.60
2006,06,25,09,48,24.60
2006,06,25,09,49,24.50
2006,06,25,09,50,24.50
2006,06,25,09,51,24.50
2006,06,25,09,52,24.50
2006,06,25,09,53,24.60
2006,06,25,09,54,24.70
2006,06,25,09,55,24.70
2006,06,25,09,56,24.80
2006,06,25,09,57,24.90
2006,06,25,09,58,24.90
2006,06,25,09,59,24.90
2006,06,25,10,00,25.00
2006,06,25,10,01,25.00
2006,06,25,10,02,25.10
2006,06,25,10,03,25.20
2006,06,25,10,04,25.30
2006,06,25,10,05,25.40
2006,06,25,10,06,25.60
2006,06,25,10,07,25.70
2006,06,25,10,08,25.70
2006,06,25,10,09,25.80
2006,06,25,10,10,25.80
2006,06,25,10,11,25.80
2006,06,25,10,12,25.90
2006,06,25,10,13,26.00
2006,06,25,10,14,26.00
2006,06,25,10,15,26.00
2006,06,25,10,16,26.00
2006,06,25,10,17,26.10
2006,06,25,10,18,26.20
2006,06,25,10,19,26.20
2006,06,25,10,20,26.30
2006,06,25,10,21,26.30
2006,06,25,10,22,26.30
2006,06,25,10,23,26.20
2006,06,25,10,24,26.20
2006,06,25,10,25,26.20
2006,06,25,10,26,26.20
2006,06,25,10,27,26.10
2006,06,25,10,28,26.10
2006,06,25,10,29,26.00
2006,06,25,10,30,26.00
2006,06,25,10,31,26.00
2006,06,25,10,32,26.10
2006,06,25,10,33,26.30
2006,06,25,10,34,26.30
2006,06,25,10,35,26.30
2006,06,25,10,36,26.40
2006,06,25,10,37,26.40
2006,06,25,10,38,26.40
2006,06,25,10,39,26.40
2006,06,25,10,40,26.40
2006,06,25,10,41,26.30
2006,06,25,10,42,26.30
2006,06,25,10,43,26.30
2006,06,25,10,44,26.30
2006,06,25,10,45,26.60
2006,06,25,10,46,26.60
2006,06,25,10,47,26.80
2006,06,25,10,48,26.90
2006,06,25,10,49,27.00
2006,06,25,10,50,27.10
2006,06,25,10,51,27.20
2006,06,25,10,52,27.30
2006,06,25,10,53,27.20
2006,06,25,10,54,27.20
2006,06,25,10,55,27.20
2006,06,25,10,56,27.20
2006,06,25,10,57,27.30
2006,06,25,10,58,27.30
2006,06,25,10,59,27.20
2006,06,25,11,00,27.30
2006,06,25,11,01,27.30
2006,06,25,11,02,27.30
2006,06,25,11,03,27.40
2006,06,25,11,04,27.40
2006,06,25,11,05,27.40
2006,06,25,11,06,27.50
2006,06,25,11,07,27.60
2006,06,25,11,08,27.70
2006,06,25,11,09,27.70
2006,06,25,11,10,27.90
2006,06,25,11,11,28.00
2006,06,25,11,12,28.00
2006,06,25,11,13,27.90
2006,06,25,11,14,27.90
2006,06,25,11,15,28.00
2006,06,25,11,16,28.10
2006,06,25,11,17,28.20
2006,06,25,11,18,28.20
2006,06,25,11,19,28.20
2006,06,25,11,20,28.20
2006,06,25,11,21,28.20
2006,06,25,11,22,28.10
2006,06,25,11,23,28.00
2006,06,25,11,24,28.00
2006,06,25,11,25,28.10
2006,06,25,11,26,28.20
2006,06,25,11,27,28.30
2006,06,25,11,28,28.40
2006,06,25,11,29,28.40
2006,06,25,11,30,28.50
2006,06,25,11,31,28.60
2006,06,25,11,32,28.80
2006,06,25,11,33,28.90
2006,06,25,11,34,28.90
2006,06,25,11,35,28.90
2006,06,25,11,36,28.80
2006,06,25,11,37,28.70
2006,06,25,11,38,28.70
2006,06,25,11,39,28.70
2006,06,25,11,40,28.60
2006,06,25,11,41,28.50
2006,06,25,11,42,28.30
2006,06,25,11,43,28.20
2006,06,25,11,44,28.10
2006,06,25,11,45,28.00
2006,06,25,11,46,28.00
2006,06,25,11,47,28.00
2006,06,25,11,48,28.10
2006,06,25,11,49,28.10
2006,06,25,11,50,28.20
2006,06,25,11,51,28.30
2006,06,25,11,52,28.30
2006,06,25,11,53,28.20
2006,06,25,11,54,28.30
2006,06,25,11,55,28.30
2006,06,25,11,56,28.20
2006,06,25,11,57,28.20
2006,06,25,11,58,28.20
2006,06,25,11,59,28.20
2006,06,25,12,00,28.20
2006,06,25,12,01,28.30
2006,06,25,12,02,28.40
2006,06,25,12,03,28.40
2006,06,25,12,04,28.40
2006,06,25,12,05,28.40
2006,06,25,12,06,28.50
2006,06,25,12,07,28.60
2006,06,25,12,08,28.50
2006,06,25,12,09,28.50
2006,06,25,12,10,28.60
2006,06,25,12,11,28.60
2006,06,25,12,12,28.60
2006,06,25,12,13,28.60
2006,06,25,12,14,28.40
2006,06,25,12,15,28.30
2006,06,25,12,16,28.30
2006,06,25,12,17,28.30
2006,06,25,12,18,28.40
2006,06,25,12,19,28.40
2006,06,25,12,20,28.40
2006,06,25,12,21,28.40
2006,06,25,12,22,28.40
2006,06,25,12,23,28.50
2006,06,25,12,24,28.60
2006,06,25,12,25,28.60
2006,06,25,12,26,28.60
2006,06,25,12,27,28.60
2006,06,25,12,28,28.60
2006,06,25,12,29,28.70
2006,06,25,12,30,28.70
2006,06,25,12,31,28.60
2006,06,25,12,32,28.60
2006,06,25,12,33,28.60
2006,06,25,12,34,28.60
2006,06,25,12,35,28.70
2006,06,25,12,36,28.80
2006,06,25,12,37,28.80
2006,06,25,12,38,28.90
2006,06,25,12,39,28.90
2006,06,25,12,40,28.90
2006,06,25,12,41,29.00
2006,06,25,12,42,29.20
2006,06,25,12,43,29.20
2006,06,25,12,44,29.20
2006,06,25,12,45,29.40
2006,06,25,12,46,29.50
2006,06,25,12,47,29.60
2006,06,25,12,48,29.70
2006,06,25,12,49,29.70
2006,06,25,12,50,29.80
2006,06,25,12,51,29.90
2006,06,25,12,52,29.90
2006,06,25,12,53,29.90
2006,06,25,12,54,29.90
2006,06,25,12,55,30.00
2006,06,25,12,56,30.10
2006,06,25,12,57,30.10
2006,06,25,12,58,30.10
2006,06,25,12,59,30.20
2006,06,25,13,00,30.30
2006,06,25,13,01,30.30
2006,06,25,13,02,30.10
2006,06,25,13,03,29.80
2006,06,25,13,04,29.50
2006,06,25,13,05,29.20
2006,06,25,13,06,29.10
2006,06,25,13,07,29.00
2006,06,25,13,08,28.90
2006,06,25,13,09,28.90
2006,06,25,13,10,28.90
2006,06,25,13,11,28.90
2006,06,25,13,12,29.10
2006,06,25,13,13,29.10
2006,06,25,13,14,29.20
2006,06,25,13,15,29.10
2006,06,25,13,16,29.10
2006,06,25,13,17,29.00
2006,06,25,13,18,28.90
2006,06,25,13,19,28.90
2006,06,25,13,20,28.90
2006,06,25,13,21,28.90
2006,06,25,13,22,28.90
2006,06,25,13,23,28.90
2006,06,25,13,24,29.00
2006,06,25,13,25,29.10
2006,06,25,13,26,29.20
2006,06,25,13,27,29.20
2006,06,25,13,28,29.20
2006,06,25,13,29,29.20
2006,06,25,13,30,29.20
2006,06,25,13,31,29.30
2006,06,25,13,32,29.30
2006,06,25,13,33,29.20
2006,06,25,13,34,29.10
2006,06,25,13,35,29.10
2006,06,25,13,36,29.20
2006,06,25,13,37,29.30
2006,06,25,13,38,29.30
2006,06,25,13,39,29.30
2006,06,25,13,40,29.30
2006,06,25,13,41,29.40
2006,06,25,13,42,29.50
2006,06,25,13,43,29.60
2006,06,25,13,44,29.70
2006,06,25,13,45,29.80
2006,06,25,13,46,29.80
2006,06,25,13,47,29.80
2006,06,25,13,48,29.70
2006,06,25,13,49,29.70
2006,06,25,13,50,29.70
2006,06,25,13,51,29.70
2006,06,25,13,52,29.60
2006,06,25,13,53,29.70
2006,06,25,13,54,29.70
2006,06,25,13,55,29.80
2006,06,25,13,56,29.90
2006,06,25,13,57,30.00
2006,06,25,13,58,30.10
2006,06,25,13,59,30.20
2006,06,25,14,00,30.20
2006,06,25,14,01,30.20
2006,06,25,14,02,30.10
2006,06,25,14,03,30.10
2006,06,25,14,04,30.20
2006,06,25,14,05,30.20
2006,06,25,14,06,30.30
2006,06,25,14,07,30.30
2006,06,25,14,08,30.30
2006,06,25,14,09,30.30
2006,06,25,14,10,30.30
2006,06,25,14,11,30.20
2006,06,25,14,12,30.20
2006,06,25,14,13,30.20
2006,06,25,14,14,30.20
2006,06,25,14,15,30.10
2006,06,25,14,16,30.10
2006,06,25,14,17,30.10
2006,06,25,14,18,30.00
2006,06,25,14,19,30.00
2006,06,25,14,20,30.10
2006,06,25,14,21,30.10
2006,06,25,14,22,30.20
2006,06,25,14,23,30.20
2006,06,25,14,24,30.20
2006,06,25,14,25,30.20
2006,06,25,14,26,30.30
2006,06,25,14,27,30.20
2006,06,25,14,28,30.10
2006,06,25,14,29,30.00
2006,06,25,14,30,29.90
2006,06,25,14,31,30.00
2006,06,25,14,32,30.00
2006,06,25,14,33,29.90
2006,06,25,14,34,29.90
2006,06,25,14,35,29.90
2006,06,25,14,36,29.90
2006,06,25,14,37,29.90
2006,06,25,14,38,29.80
2006,06,25,14,39,29.90
2006,06,25,14,40,29.90
2006,06,25,14,41,29.90
2006,06,25,14,42,30.00
2006,06,25,14,43,30.10
2006,06,25,14,44,30.20
2006,06,25,14,45,30.20
2006,06,25,14,46,30.30
2006,06,25,14,47,30.30
2006,06,25,14,48,30.30
2006,06,25,14,49,30.30
2006,06,25,14,50,30.40
2006,06,25,14,51,30.40
2006,06,25,14,52,30.30
2006,06,25,14,53,30.30
2006,06,25,14,54,30.30
2006,06,25,14,55,30.30
2006,06,25,14,56,30.40
2006,06,25,14,57,30.60
2006,06,25,14,58,30.70
2006,06,25,14,59,30.70
2006,06,25,15,00,30.60
2006,06,25,15,01,30.40
2006,06,25,15,02,30.30
2006,06,25,15,03,30.30
2006,06,25,15,04,30.30
2006,06,25,15,05,30.20
2006,06,25,15,06,30.20
2006,06,25,15,07,30.20
2006,06,25,15,08,30.10
2006,06,25,15,09,30.10
2006,06,25,15,10,30.10
2006,06,25,15,11,30.10
2006,06,25,15,12,30.10
2006,06,25,15,13,30.20
2006,06,25,15,14,30.20
2006,06,25,15,15,30.10
2006,06,25,15,16,30.10
2006,06,25,15,17,30.10
2006,06,25,15,18,30.20
2006,06,25,15,19,30.30
2006,06,25,15,20,30.40
2006,06,25,15,21,30.40
2006,06,25,15,22,30.40
2006,06,25,15,23,30.40
2006,06,25,15,24,30.50
2006,06,25,15,25,30.60
2006,06,25,15,26,30.70
2006,06,25,15,27,30.70
2006,06,25,15,28,30.70
2006,06,25,15,29,30.80
2006,06,25,15,30,30.90
2006,06,25,15,31,30.90
2006,06,25,15,32,30.90
2006,06,25,15,33,30.90
2006,06,25,15,34,30.90
2006,06,25,15,35,30.90
2006,06,25,15,36,30.90
2006,06,25,15,37,30.90
2006,06,25,15,38,31.00
2006,06,25,15,39,31.00
2006,06,25,15,40,31.00
2006,06,25,15,41,30.90
2006,06,25,15,42,30.90
2006,06,25,15,43,31.00
2006,06,25,15,44,31.00
2006,06,25,15,45,31.00
2006,06,25,15,46,31.00
2006,06,25,15,47,31.00
2006,06,25,15,48,31.10
2006,06,25,15,49,31.10
2006,06,25,15,50,31.10
2006,06,25,15,51,31.10
2006,06,25,15,52,31.10
2006,06,25,15,53,31.10
2006,06,25,15,54,31.10
2006,06,25,15,55,31.10
2006,06,25,15,56,31.10
2006,06,25,15,57,31.00
2006,06,25,15,58,31.00
2006,06,25,15,59,31.00
2006,06,25,16,00,31.00
2006,06,25,16,01,31.10
2006,06,25,16,02,31.10
2006,06,25,16,03,31.10
2006,06,25,16,04,31.10
2006,06,25,16,05,31.00
2006,06,25,16,06,31.00
2006,06,25,16,07,30.90
2006,06,25,16,08,30.80
2006,06,25,16,09,30.80
2006,06,25,16,10,30.80
2006,06,25,16,11,30.80
2006,06,25,16,12,30.70
2006,06,25,16,13,30.60
2006,06,25,16,14,30.40
2006,06,25,16,15,30.40
2006,06,25,16,16,30.40
2006,06,25,16,17,30.30
2006,06,25,16,18,30.30
2006,06,25,16,19,30.30
2006,06,25,16,20,30.20
2006,06,25,16,21,30.20
2006,06,25,16,22,30.20
2006,06,25,16,23,30.30
2006,06,25,16,24,30.40
2006,06,25,16,25,30.30
2006,06,25,16,26,30.30
2006,06,25,16,27,30.20
2006,06,25,16,28,30.30
2006,06,25,16,29,30.30
2006,06,25,16,30,30.30
2006,06,25,16,31,30.30
2006,06,25,16,32,30.40
2006,06,25,16,33,30.60
2006,06,25,16,34,30.50
2006,06,25,16,35,30.40
2006,06,25,16,36,30.40
2006,06,25,16,37,30.40
2006,06,25,16,38,30.40
2006,06,25,16,39,30.40
2006,06,25,16,40,30.30
2006,06,25,16,41,30.40
2006,06,25,16,42,30.50
2006,06,25,16,43,30.60
2006,06,25,16,44,30.60
2006,06,25,16,45,30.60
2006,06,25,16,46,30.60
2006,06,25,16,47,30.50
2006,06,25,16,48,30.40
2006,06,25,16,49,30.30
2006,06,25,16,50,30.30
2006,06,25,16,51,30.40
2006,06,25,16,52,30.30
2006,06,25,16,53,30.30
2006,06,25,16,54,30.30
2006,06,25,16,55,30.30
2006,06,25,16,56,30.40
2006,06,25,16,57,30.40
2006,06,25,16,58,30.40
2006,06,25,16,59,30.40
2006,06,25,17,00,30.50
2006,06,25,17,01,30.70
2006,06,25,17,02,30.70
2006,06,25,17,03,30.80
2006,06,25,17,04,30.80
2006,06,25,17,05,30.80
2006,06,25,17,06,30.80
2006,06,25,17,07,30.80
2006,06,25,17,08,30.80
2006,06,25,17,09,30.90
2006,06,25,17,10,30.90
2006,06,25,17,11,30.90
2006,06,25,17,12,30.90
2006,06,25,17,13,31.00
2006,06,25,17,14,31.00
2006,06,25,17,15,31.10
2006,06,25,17,16,31.10
2006,06,25,17,17,31.10
2006,06,25,17,18,31.20
2006,06,25,17,19,31.20